INMARSAT 3-F2 1 24307U 96053A 10210.17693861 .00000000 00000-0 10000-3 0 3329 2 24307 000.0647 334.8405 0005490 128.5267 251.5222 01.00267918 50874 INMARSAT 3-F3 1 24674U 96070A 10210.46689294 .00000040 00000-0 10000-3 0 3887 2 24674 000.1108 302.6693 0004583 165.7105 184.7647 01.00272538 49827 INMARSAT 3-F4 1 24819U 97027A 10210.10118744 -.00000287 00000-0 10000-3 0 2073 2 24819 000.6314 074.1051 0005964 042.1373 172.7666 01.00267334 48241 INMARSAT 3-F5 1 25153U 98006B 10209.73746421 .00000138 00000-0 10000-3 0 1892 2 25153 000.4830 353.0134 0004159 141.8507 101.6776 01.00276236 45742 ARTEMIS 1 26863U 01029A 10209.83417571 +.00000120 +00000-0 +10000-3 0 09330 2 26863 008.4154 063.5468 0002776 049.5376 154.9502 01.00271928034224 MTSAT-1R 1 28622U 05006A 10208.55560005 -.00000286 00000-0 10000-3 0 3982 2 28622 000.0264 107.9324 0001919 241.8572 295.3967 01.00270526 19812 ANIK F1-R 1 28868U 05036A 10210.62715793 .00000000 00000-0 10000-3 0 8049 2 28868 000.0046 344.4866 0002813 145.0806 296.0614 01.00269064 17988 GALAXY 15 1 28884U 05041A 10211.53936177 .00000034 00000-0 10000-3 0 8929 2 28884 000.3247 079.4159 0002764 036.6452 261.2798 01.00309359 17584 MTSAT-2 1 28937U 06004A 10210.61994116 -.00000242 +00000-0 +10000-3 0 07924 2 28937 000.0190 029.2452 0003298 068.7723 217.3332 01.00273210016318